STARLINK-4133 (53253 NORAD) Tracking and Keplerian Element Data

This shows tracking and keplerian element data for the satellite.

Feedback or suggestion? Click here.




ElementValue
Catalog53253
NameSTARLINK-4133
Epoch Orbit1074
Epoch Day270.25001157
Epoch Year2022
RAAN88.1213
Inclination53.2172
Eccentricity0.0001516
Argument of Perigee59.6427
Mean Anonmoly86.3319
Mean Motion15.18403298
Decay Rate-0.01076622
L11 53253U 22086M 22270.25001157 -.01076622 00000+0 -55797-1 0 9999
L22 53253 53.2172 88.1213 0001516 59.6427 86.3319 15.18403298 10742

Live tracking and technical data element details for STARLINK-4133 (NORAD 53253). STARLINK-4133 can be tracked NOW for your location showing map with azimuth and elevation plus other details from your city location.

Track the satellite on the map from your city or location and see movement details for azimuth, elevation, latitude, longitude, range, height, and movement on the map or in text.







IsCatalogInMostPopularTable: catalog: 53253, numindb: 3
Update: records affected: 1



GetName: 53253 STARLINK-4133

Hit Count: updated at: Fri, 30 Sep 2022 03:22:27 GMT